EN

Hourly Weather Lugomovichi

Today, 27 November, Friday

Time Temperature Precipitation Wind Pressure Humidity
00:00 -2°C° 0 mm 4 mps 747 mmHg 88%
01:00 -1°C° 0 mm 4 mps 746 mmHg 88%
02:00 +1°C° 0 mm 3 mps 746 mmHg 91%
03:00 0°C° 0.1 mm 4 mps 746 mmHg 91%
04:00 0°C° 0.1 mm 4 mps 745 mmHg 91%
05:00 0°C° 0.1 mm 5 mps 745 mmHg 92%
06:00 +1°C° 0.1 mm 5 mps 744 mmHg 91%
07:00 +1°C° 0.1 mm 5 mps 744 mmHg 91%
08:00 +2°C° 0.1 mm 5 mps 744 mmHg 91%
09:00 +2°C° 0.1 mm 5 mps 744 mmHg 91%
10:00 +2°C° 0.1 mm 6 mps 744 mmHg 90%
11:00 +3°C° 0.1 mm 6 mps 744 mmHg 90%
12:00 +3°C° 0.1 mm 6 mps 744 mmHg 85%
13:00 +3°C° 0.1 mm 5 mps 745 mmHg 81%
14:00 +3°C° 0.1 mm 5 mps 745 mmHg 76%
15:00 +2°C° 0 mm 5 mps 745 mmHg 80%
16:00 +2°C° 0 mm 5 mps 745 mmHg 83%
17:00 +1°C° 0 mm 4 mps 746 mmHg 87%
18:00 +1°C° 0.1 mm 4 mps 746 mmHg 88%
19:00 0°C° 0.1 mm 4 mps 746 mmHg 90%
20:00 0°C° 0.1 mm 4 mps 746 mmHg 91%
21:00 +1°C° 0.4 mm 3 mps 746 mmHg 90%
22:00 0°C° 0.4 mm 3 mps 746 mmHg 89%
23:00 -1°C° 0.4 mm 2 mps 746 mmHg 88%

Tomorrow, 28 November, Saturday

Time Temperature Precipitation Wind Pressure Humidity
00:00 -1°C° 0.1 mm 2 mps 747 mmHg 89%
01:00 -1°C° 0.1 mm 2 mps 747 mmHg 89%
02:00 -2°C° 0.1 mm 2 mps 747 mmHg 90%
03:00 -2°C° 0 mm 2 mps 747 mmHg 91%
04:00 -2°C° 0 mm 2 mps 747 mmHg 92%
05:00 -2°C° 0 mm 2 mps 747 mmHg 93%
06:00 -2°C° 0 mm 2 mps 748 mmHg 91%
07:00 -2°C° 0 mm 2 mps 748 mmHg 88%
08:00 -2°C° 0 mm 2 mps 749 mmHg 85%
09:00 -1°C° 0.1 mm 2 mps 749 mmHg 85%
10:00 -1°C° 0.1 mm 2 mps 749 mmHg 86%
11:00 -1°C° 0.1 mm 2 mps 749 mmHg 86%
12:00 -1°C° 0.2 mm 2 mps 749 mmHg 89%
13:00 -1°C° 0.2 mm 2 mps 749 mmHg 92%
14:00 -1°C° 0.2 mm 2 mps 749 mmHg 95%
15:00 -1°C° 0.5 mm 2 mps 749 mmHg 96%
16:00 -1°C° 0.5 mm 2 mps 749 mmHg 96%
17:00 -1°C° 0.5 mm 2 mps 749 mmHg 97%
18:00 -1°C° 0.1 mm 2 mps 749 mmHg 97%
19:00 -1°C° 0.1 mm 2 mps 750 mmHg 96%
20:00 -1°C° 0.1 mm 3 mps 750 mmHg 95%
21:00 -2°C° 0 mm 2 mps 750 mmHg 94%
22:00 -2°C° 0 mm 2 mps 750 mmHg 94%
23:00 -3°C° 0 mm 2 mps 750 mmHg 93%

Day after tomorrow, 29 November, Sunday

Time Temperature Precipitation Wind Pressure Humidity
00:00 -3°C° 0 mm 2 mps 750 mmHg 93%
01:00 -3°C° 0 mm 2 mps 750 mmHg 92%
02:00 -3°C° 0 mm 2 mps 751 mmHg 92%
03:00 -3°C° 0 mm 2 mps 750 mmHg 93%
04:00 -3°C° 0 mm 2 mps 750 mmHg 95%
05:00 -3°C° 0 mm 2 mps 750 mmHg 96%
06:00 -3°C° 0 mm 2 mps 750 mmHg 96%
07:00 -2°C° 0 mm 2 mps 751 mmHg 95%
08:00 -2°C° 0 mm 3 mps 751 mmHg 95%
09:00 -1°C° 0.1 mm 3 mps 751 mmHg 94%
10:00 -1°C° 0.1 mm 3 mps 751 mmHg 92%
11:00 0°C° 0.1 mm 3 mps 751 mmHg 90%
12:00 0°C° 0 mm 3 mps 751 mmHg 88%
13:00 0°C° 0 mm 3 mps 751 mmHg 86%
14:00 0°C° 0 mm 3 mps 751 mmHg 84%
15:00 -1°C° 0 mm 3 mps 751 mmHg 85%
16:00 -1°C° 0 mm 3 mps 751 mmHg 87%
17:00 -1°C° 0 mm 3 mps 750 mmHg 89%
18:00 -1°C° 0 mm 3 mps 750 mmHg 89%
19:00 -2°C° 0 mm 2 mps 751 mmHg 90%
20:00 -2°C° 0 mm 2 mps 751 mmHg 91%
21:00 -2°C° 0 mm 2 mps 751 mmHg 92%
22:00 -2°C° 0 mm 2 mps 751 mmHg 92%
23:00 -2°C° 0 mm 2 mps 751 mmHg 93%

30 November, Monday

Time Temperature Precipitation Wind Pressure Humidity
00:00 -2°C° 0.1 mm 2 mps 751 mmHg 93%
01:00 -2°C° 0.1 mm 2 mps 751 mmHg 94%
02:00 -2°C° 0.1 mm 2 mps 751 mmHg 94%
03:00 -2°C° 0.2 mm 3 mps 751 mmHg 95%
04:00 -2°C° 0.2 mm 3 mps 751 mmHg 95%
05:00 -2°C° 0.2 mm 3 mps 751 mmHg 95%
06:00 -2°C° 0.3 mm 3 mps 752 mmHg 95%
07:00 -2°C° 0.3 mm 3 mps 752 mmHg 95%
08:00 -3°C° 0.3 mm 4 mps 752 mmHg 95%
09:00 -3°C° 0.2 mm 4 mps 753 mmHg 94%
10:00 -3°C° 0.2 mm 4 mps 753 mmHg 92%
11:00 -3°C° 0.2 mm 4 mps 753 mmHg 91%
12:00 -3°C° 0.1 mm 4 mps 754 mmHg 90%
13:00 -3°C° 0.1 mm 4 mps 754 mmHg 89%
14:00 -3°C° 0.1 mm 4 mps 754 mmHg 89%
15:00 -3°C° 0 mm 4 mps 754 mmHg 90%
16:00 -2°C° 0 mm 3 mps 755 mmHg 92%
17:00 -2°C° 0 mm 3 mps 755 mmHg 93%
18:00 -4°C° 0 mm 3 mps 755 mmHg 92%
19:00 -4°C° 0 mm 3 mps 756 mmHg 91%
20:00 -4°C° 0 mm 3 mps 756 mmHg 90%
21:00 -4°C° 0 mm 3 mps 756 mmHg 90%
22:00 -5°C° 0 mm 3 mps 756 mmHg 90%
23:00 -5°C° 0 mm 3 mps 756 mmHg 90%

1 December, Tuesday

Time Temperature Precipitation Wind Pressure Humidity
00:00 -5°C° 0 mm 3 mps 756 mmHg 89%
01:00 -5°C° 0 mm 3 mps 756 mmHg 89%
02:00 -5°C° 0 mm 3 mps 756 mmHg 88%
03:00 -5°C° 0 mm 3 mps 756 mmHg 88%
04:00 -5°C° 0 mm 3 mps 756 mmHg 89%
05:00 -5°C° 0 mm 4 mps 756 mmHg 89%
06:00 -5°C° 0 mm 4 mps 755 mmHg 90%
07:00 -5°C° 0 mm 4 mps 755 mmHg 90%
08:00 -5°C° 0 mm 4 mps 755 mmHg 91%
09:00 -4°C° 0 mm 4 mps 755 mmHg 90%
10:00 -4°C° 0 mm 4 mps 755 mmHg 88%
11:00 -3°C° 0 mm 4 mps 754 mmHg 87%
12:00 -3°C° 0 mm 4 mps 754 mmHg 86%
13:00 -3°C° 0 mm 4 mps 754 mmHg 85%
14:00 -3°C° 0 mm 4 mps 753 mmHg 84%
15:00 -3°C° 0 mm 4 mps 753 mmHg 86%
16:00 -3°C° 0 mm 4 mps 753 mmHg 87%
17:00 -4°C° 0 mm 4 mps 753 mmHg 88%
18:00 -4°C° 0 mm 4 mps 753 mmHg 89%
19:00 -4°C° 0 mm 4 mps 753 mmHg 90%
20:00 -4°C° 0 mm 4 mps 753 mmHg 90%
21:00 -4°C° 0.1 mm 4 mps 753 mmHg 90%
22:00 -4°C° 0.1 mm 3 mps 753 mmHg 91%
23:00 -4°C° 0.1 mm 3 mps 752 mmHg 91%

2 December, Wednesday

Time Temperature Precipitation Wind Pressure Humidity
00:00 -4°C° 0 mm 3 mps 752 mmHg 91%
01:00 -5°C° 0 mm 3 mps 752 mmHg 91%
02:00 -4°C° 0 mm 2 mps 752 mmHg 91%
03:00 -4°C° 0 mm 2 mps 752 mmHg 91%
04:00 -4°C° 0 mm 2 mps 753 mmHg 92%
05:00 -4°C° 0 mm 2 mps 753 mmHg 92%
06:00 -4°C° 0 mm 2 mps 753 mmHg 93%
07:00 -4°C° 0 mm 2 mps 753 mmHg 93%
08:00 -5°C° 0 mm 2 mps 753 mmHg 94%
09:00 -4°C° 0 mm 2 mps 753 mmHg 92%
10:00 -3°C° 0 mm 2 mps 754 mmHg 90%
11:00 -3°C° 0 mm 2 mps 754 mmHg 88%
12:00 -3°C° 0 mm 2 mps 754 mmHg 87%
13:00 -2°C° 0 mm 2 mps 754 mmHg 86%
14:00 -2°C° 0 mm 2 mps 754 mmHg 85%
15:00 -3°C° 0 mm 2 mps 754 mmHg 87%
16:00 -1°C° 0 mm 1 mps 754 mmHg 89%
17:00 -2°C° 0 mm 1 mps 755 mmHg 92%
18:00 -2°C° 0 mm 1 mps 755 mmHg 92%
19:00 -3°C° 0 mm 1 mps 755 mmHg 92%
20:00 -3°C° 0 mm 1 mps 756 mmHg 92%
21:00 -3°C° 0 mm 1 mps 756 mmHg 92%
22:00 -3°C° 0 mm 1 mps 756 mmHg 92%
23:00 -3°C° 0 mm 1 mps 756 mmHg 92%
Show more